SL-12 R/B(2), 15581

Orbit data source: Space-Track

SL-12 R/B(2), 15581 is space debris in GEO originally from a launch on Thu, 21 Feb 1985 UTC launched from the Tyuratam Missile And Space Complex (TTMTR). Debris objects in space refer to the collection of defunct objects orbiting the Earth. Examples of debris include non-operational satellites, rocket bodies, and fragments generated from explosions, collisions, or faulty payload assembly.

Loading next visibility...
Identifier
15581, 1985-016F
Orbit
GEO
Country
Flag of CISCIS
Related business
Manufacturer
NPO Energiya
Mission
Spacecraft
Bus & Motor
BLOK DM, Unknown motor
Mass
2,440 kg wet, 2,440 kg dry
Launch date (UTC)
1985-02-21 (41 years ago)
Launch vehicle
Unknown
Launch site
Tyuratam Missile And Space Complex (TTMTR)
Object type
Payload
Rocket body
Debris
Shape & HBR
Cyl, 3.1 m
Radar Cross Section
23.597 m², Large (>1 m²)

Expand to show TLE details & history
Last TLE update: 20 hours ago

TLE from 20 hours ago
0 SL-12 R/B(2)
1 15581U 85016F   25260.20678485 -.00000051  00000-0  00000-0 0  9992
2 15581  10.1339 318.0327 0026510 247.4886 128.2031  0.99402387119220
Epoch: 2025-09-17T04:57Z
TLE epoch observation values (Epoch: 2025-09-17T04:57:46.211Z)
Latitude
2.76643°
Longitude
-97.08604°
Altitude
36,101.511 km
Speed
3.061 km/s
True Right ascension
22h 14m 58s
True Declination
2° 45' 49"
Sunlit
Object was in daylight at epoch
Visualization orbit readout
Latitude
Unknown
Longitude
Unknown
Altitude
Unknown
Speed
Unknown
Apparent Right ascension
Unknown
Apparent Declination
Unknown
Sunlit
N/A
Visualization observer readout
Local Sidereal Time
17:31:21
Azimuth
Unknown
Elevation
Unknown
Doppler factor
Unknown
Orbital elements
Apogee altitude
36,145.542 km
Perigee altitude
35,920.678 km
Semi-major axis
42,411.247 km
Eccentricity
0.00265
Inclination
10.1339°
RAAN
318.0327°
Arg. of periapsis
247.4886°
True anomaly
128.44133°
Mean anomaly
128.2031°
Eccentric anomaly
128.32226°
Mean motion
0.2485 °/min
Orbital period
1,448.71 mins
BSTAR
0
Loading maneuver chart data...
Computing Atmospheric mass density...
Loading historical data...
Loading historical data...
Loading historical data...
Loading historical data...
Loading historical data...
Loading historical data...
Loading historical data...

Documentation

Showing up to 5 results
|